DELTA 1 DEB, 10642

Orbit data source: Space-Track

DELTA 1 DEB, 10642 is space debris in SSO originally from a launch on Thu, 29 Jul 1976 UTC launched from the Air Force Western Test Range (AFWTR). Debris objects in space refer to the collection of defunct objects orbiting the Earth. Examples of debris include non-operational satellites, rocket bodies, and fragments generated from explosions, collisions, or faulty payload assembly.

Loading next visibility...
Identifier
10642, 1976-077C
Orbit
SSO
Country
Flag of USUS
Related business
Manufacturer
Unknown
Mission
Spacecraft
Bus & Motor
Unknown
Mass
Unknown
Launch date (UTC)
1976-07-29 (49 years ago)
Launch vehicle
Unknown
Launch site
Air Force Western Test Range (AFWTR)
Object type
Payload
Rocket body
Debris
Shape & HBR
Unknown shape, 0.1 m
Radar Cross Section
Small (<0.1 m²)

Expand to show TLE details & history
Last TLE update: 16 hours ago

TLE from 16 hours ago
0 DELTA 1 DEB
1 10642U 76077C   25292.17635440  .00000008  00000-0  47111-3 0  9995
2 10642 102.2104 245.3142 0102626  99.1522  16.6543 12.21813809195590
Epoch: 2025-10-19T04:13Z
TLE epoch observation values (Epoch: 2025-10-19T04:13:57.020Z)
Latitude
61.41459°
Longitude
-2.79177°
Altitude
1,516.712 km
Speed
7.147 km/s
True Right ascension
05h 54m 22s
True Declination
61° 17' 02"
Sunlit
Object was in daylight at epoch
Visualization orbit readout
Latitude
Unknown
Longitude
Unknown
Altitude
Unknown
Speed
Unknown
Apparent Right ascension
Unknown
Apparent Declination
Unknown
Sunlit
N/A
Visualization observer readout
Local Sidereal Time
15:35:32
Azimuth
Unknown
Elevation
Unknown
Doppler factor
Unknown
Orbital elements
Apogee altitude
1,663.956 km
Perigee altitude
1,500.567 km
Semi-major axis
7,960.399 km
Eccentricity
0.01026
Inclination
102.2104°
RAAN
245.3142°
Arg. of periapsis
99.1522°
True anomaly
16.99553°
Mean anomaly
16.6543°
Eccentric anomaly
16.82449°
Mean motion
3.05591 °/min
Orbital period
117.8 mins
BSTAR
0.00047111
Loading maneuver chart data...
Computing Atmospheric mass density...
Loading historical data...
Loading historical data...
Loading historical data...
Loading historical data...
Loading historical data...
Loading historical data...
Loading historical data...

Documentation

Showing up to 5 results
|